Scilly, United Kingdom

1:57 AM GMT on December 12, 2017 (GMT +0000)
Saint Mary's

Weather History for EGHE - January, 2013

Change the Weather History Date:

Wednesday, January 23, 2013

  Actual Average Record
Temperature  
Mean Temperature 44 °F -  
Max Temperature 45 °F 47 °F 55 °F (2001)
Min Temperature 42 °F 45 °F 41 °F (2007)
Degree Days  
Heating Degree Days 22    
Moisture  
Dew Point 38 °F    
Average Humidity 77    
Maximum Humidity 93    
Minimum Humidity 69    
Precipitation  
Precipitation 0.20 in - - ()
Sea Level Pressure  
Sea Level Pressure 29.67 in    
Wind  
Wind Speed 8 mph ()    
Max Wind Speed 15 mph    
Max Gust Speed -    
Visibility 7.5 miles    
Events Rain    
Averages and records for this station are not official NWS values.
T = Trace of Precipitation, MM = Missing Value Source: Averaged Metar Reports

Daily Weather History Graph

Daily Weather History Graph

Search for Another Location

Airport or City:

Trip Planner

Search our weather history database for the weather conditions in past years. The results will help you decide how hot, cold, wet, or windy it might be!

Date:

Astronomy

Jan. 23, 2013 Rise Set
Actual Time 8:09 AM GMT 5:04 PM GMT
Civil Twilight 7:33 AM GMT 5:40 PM GMT
Nautical Twilight 6:54 AM GMT 6:20 PM GMT
Astronomical Twilight 6:16 AM GMT 6:58 PM GMT
Moon 1:58 PM GMT (1/23) 5:15 AM GMT (1/23)
Length of Visible Light 10h 06m
Length of Day
8h 55m
Waxing Gibbous, 88% of the Moon is Illuminated
Jan 23
Waxing Gibbous
Jan 27
Full
Feb 3
Last Quarter
Feb 10
New
Feb 17
First Quarter

Hourly Weather History & Observations

Time (GMT) Temp. Windchill Dew Point Humidity Pressure Visibility Wind Dir Wind Speed Gust Speed Precip Events Conditions
2:50 AM 44 °F - 37 °F 69% 29.71 in 31 mi North 12.7 mph - - Rain Rain
5:50 AM 42 °F - 36 °F 72% 29.73 in 25 mi North 10.4 mph - -   Partly Cloudy
8:20 AM 42.8 °F 38.6 °F 35.6 °F 76% 29.74 in 6.2 mi NNW 6.9 mph - N/A   Partly Cloudy
8:50 AM 42 °F - 36 °F 72% 29.75 in 28 mi North 5.8 mph - -   Scattered Clouds
8:50 AM 42.8 °F 39.3 °F 37.4 °F 81% 29.74 in 6.2 mi North 5.8 mph - N/A   Partly Cloudy
9:20 AM 44.6 °F 43.1 °F 37.4 °F 76% 29.74 in 6.2 mi NNE 3.5 mph - N/A   Partly Cloudy
9:50 AM 44.6 °F 43.1 °F 37.4 °F 76% 29.74 in 6.2 mi North 3.5 mph - N/A   Partly Cloudy
10:20 AM 44.6 °F - 37.4 °F 76% 29.71 in 6.2 mi ENE 2.3 mph - N/A   Partly Cloudy
10:50 AM 44.6 °F 42.2 °F 37.4 °F 76% 29.71 in 6.2 mi SE 4.6 mph - N/A   Partly Cloudy
11:20 AM 44.6 °F 40.7 °F 37.4 °F 76% 29.68 in - SE 6.9 mph - N/A   Clear
11:50 AM 45 °F - 38 °F 70% 29.71 in 28 mi SE 6.9 mph - -   Scattered Clouds
11:50 AM 44.6 °F 40.7 °F 39.2 °F 81% 29.71 in - SE 6.9 mph - N/A   Clear
12:20 PM 46.4 °F 43.5 °F 37.4 °F 71% 29.68 in 6.2 mi South 5.8 mph - N/A   Scattered Clouds
1:20 PM 46.4 °F 40.7 °F 39.2 °F 76% 29.68 in 6.2 mi SSE 12.7 mph - N/A   Scattered Clouds
1:50 PM 44.6 °F 39.2 °F 39.2 °F 81% 29.65 in 6.2 mi South 10.4 mph - N/A   Scattered Clouds
2:20 PM 44.6 °F 38.8 °F 39.2 °F 81% 29.62 in 6.2 mi South 11.5 mph - N/A   Mostly Cloudy
2:50 PM 45 °F - 39 °F 73% 29.61 in 28 mi SSE 11.5 mph - - Rain Rain
2:50 PM 44.6 °F 38.8 °F 39.2 °F 81% 29.59 in 6.2 mi SE 11.5 mph - N/A   Mostly Cloudy
3:20 PM 44.6 °F 38.4 °F 39.2 °F 81% 29.59 in 6.2 mi SE 12.7 mph - N/A   Mostly Cloudy
3:50 PM 44.6 °F 38.1 °F 39.2 °F 81% 29.59 in 6.2 mi SE 13.8 mph - N/A Rain Light Rain
4:20 PM 42.8 °F 36.2 °F 39.2 °F 87% 29.59 in 5.0 mi ESE 12.7 mph - N/A Rain Rain
4:50 PM 42.8 °F 36.2 °F 41.0 °F 93% 29.59 in 5.0 mi ESE 12.7 mph - N/A Rain Rain
5:50 PM 44 °F - 40 °F 79% 29.58 in 19 mi South 15.0 mph - - Rain Light Rain
8:50 PM 42 °F - 37 °F 78% 29.66 in 22 mi ENE 15.0 mph - -   Mostly Cloudy
11:50 PM 42 °F - 36 °F 74% 29.76 in 18 mi North 11.5 mph - -   Mostly Cloudy